Location: Newark
(35.2672°N, 80.7344°W)
Time: 03:58:49
(UTC+00:00)

Tiros 1 - Pass Details

Date: 27 January 2020
Orbit: 631 x 664 km, 48.4° (Epoch: 18 February)

Event Time Altitude Azimuth Distance (km) Brightness Sun altitude
Rises 16:36:34 0° 232° (SW) 2,912 10.8 34.5°
Reaches altitude 10° 16:38:52 10° 232° (SW) 2,011 10.0 34.6°
Maximum altitude 16:43:31 89° 319° (NW) 642 7.7 34.9°
Drops below altitude 10° 16:48:13 10° 53° (NE) 2,039 9.6 35.1°
Sets 16:50:34 0° 53° (NE) 2,957 10.3 35.2°
